Regional Weather Roundup
Issued by NWS

Home | Current Version | Previous Version | Text Only | Print | Product List | Glossary Off
Versions: 1 2 3 4 5 6 7 8 9 10 11 12 13 14 15 16 17 18 19 20 21 22 23 24 25 26 27 28 29 30 31 32 33 34 35 36 37 38 39 40 41 42 43 44 45 46 47 48 49 50

921
ASUS43 KLOT 071612
RWRIL

ILLINOIS REGIONAL WEATHER ROUNDUP
NATIONAL WEATHER SERVICE CHICAGO/ROMEOVILLE IL
1000 AM CST WED DEC 07 2016

NOTE: "FAIR" INDICATES FEW OR NO CLOUDS BELOW 12,000 FEET WITH NO
SIGNIFICANT WEATHER AND/OR OBSTRUCTIONS TO VISIBILITY.

* THESE STATIONS ARE NOT UNDER NWS QUALITY CONTROL. THEY ALSO MAY NOT
  REPORT WEATHER SUCH AS PRECIPITATION OR FOG.

ILZ001-002-007-009-015-016-024-071700-
NORTHWEST ILLINOIS

CITY           SKY/WX    TMP DP  RH WIND       PRES   REMARKS
MOLINE         CLOUDY    26  15  63 W12       30.17S WCI  16
STERLING*      SUNNY     24  18  77 W14       30.15R WCI  12
SAVANNA*       MOSUNNY   22  15  72 W9        30.15S WCI  12
$$

ILZ003-004-008-010-011-017-018-071700-
NORTH CENTRAL ILLINOIS

CITY           SKY/WX    TMP DP  RH WIND       PRES   REMARKS
ROCKFORD       PTSUNNY   22  15  75 W15G21    30.13R WCI   9
FREEPORT*      MOSUNNY   21  15  77 W17       30.13R WCI   7
ROCHELLE*      MOSUNNY   23  17  78 W16       30.13R WCI  10
DE KALB*       MOSUNNY   22  17  79 W13G18    30.11S WCI  10
$$

ILZ005-006-012>014-019>023-071700-
NORTHEAST ILLINOIS

CITY           SKY/WX    TMP DP  RH WIND       PRES   REMARKS
CHICAGO-OHARE  PTSUNNY   25  17  72 W12G21    30.10R WCI  14
CHICAGO-MIDWAY PTSUNNY   27  16  63 W13       30.12R WCI  16
AURORA         MOSUNNY   24  17  74 W16       30.13R WCI  11
LANSING*       SUNNY     28  21  75 W9        30.13R WCI  19
JOLIET*        PTSUNNY   28  19  71 W12G17    30.15R WCI  17
WAUKEGAN       MOSUNNY   26  17  68 W9G18     30.05R WCI  17
DUPAGE AIRPORT MOSUNNY   24  15  68 W14       30.11R WCI  12
KANKAKEE*      CLOUDY    29  21  72 W12G18    30.16R WCI  19
WHEELING       MOSUNNY   25  16  68 W13       30.11R WCI  14
MORRIS*        MOSUNNY   26  19  75 W15       30.15R WCI  14
ROMEOVILLE*    MOSUNNY   26  22  85 W12       30.14R WCI  15
NORTHERLY ISL    N/A     27  17  66 SW12        N/A  WCI  17
$$

LMZ740>746-071700-
SOUTHERN LAKE MICHIGAN

STATION/POSITION SKY/WX   TEMP    WIND        PRES    VSBY  WAVE
                          AIR SEA DIR/SP/G                  HT/PER
                          (F)     (DEG/KT/KT) (MB)    (MI)  (FT/S)
HARRISON CRIB              27     250/ 12/ 15   N/A
BURNHAM HARBOR             28     260/  6/ 13   N/A
CALUMET HARBOR             27     260/  9/ 13 1019.0R
BURNS HARBOR               30     240/ 15/ 21 1020.0R
MICHIGAN CITY              30     230/ 21/ 25   N/A
$$

ILZ025>027-034>036-040-047-049-050-058-095>099-071700-
WEST-CENTRAL ILLINOIS

CITY           SKY/WX    TMP DP  RH WIND       PRES   REMARKS
QUINCY         SUNNY     30  15  53 W9        30.22R WCI  22
GALESBURG*     MOSUNNY   26  19  74 W12       30.18R WCI  15
MACOMB*        MOSUNNY   28  18  66 NW14      30.22R WCI  17
JACKSONVILLE*  MOSUNNY   32  19  59 W9        30.22R WCI  24
PITTSFIELD*    CLOUDY    32  17  55 W7        30.24R WCI  26
$$

ILZ028>032-037-038-041>044-048-051>054-059>061-071700-
CENTRAL ILLINOIS

CITY           SKY/WX    TMP DP  RH WIND       PRES   REMARKS
PONTIAC        CLOUDY    29  24  80 W14       30.17S WCI  19
BLOOMINGTON    PTSUNNY   30  20  66 W10       30.18R WCI  21
DECATUR        CLOUDY    31  18  58 W12       30.21R WCI  22
PEORIA         PTSUNNY   29  18  63 W8        30.19S WCI  21
LACON*         MOSUNNY   28  19  68 W9        30.17S WCI  19
LINCOLN*       CLOUDY    32  19  59 W7        30.20S WCI  26
SPRINGFIELD    SUNNY     32  20  61 W9        30.22R WCI  24
TAYLORVILLE    CLOUDY    31  19  62 W7        30.22S WCI  24
$$

ILZ033-039-045-046-055>057-062-063-071700-
EAST-CENTRAL ILLINOIS

CITY           SKY/WX    TMP DP  RH WIND       PRES   REMARKS
CHAMPAIGN      CLOUDY    31  21  66 W12       30.19R WCI  22
RANTOUL*       CLOUDY    32  22  68 W9        30.18R WCI  24
MATTOON        PTSUNNY   32  20  61 W7        30.20R WCI  26
PARIS*         CLOUDY    31  24  74 W8        30.21R WCI  24
$$

ILZ079-100>102-071700-
SOUTHWEST ILLINOIS

CITY           SKY/WX    TMP DP  RH WIND       PRES   REMARKS
ALTON          PTSUNNY   32  18  55 CALM      30.24R
BELLEVILLE     CLOUDY    35  19  50 W5        30.23R WCI  31
CAHOKIA*       CLOUDY    35  17  47 VRB3      30.24R
SPARTA*        CLOUDY    33  18  53 CALM      30.24F
$$

ILZ064>066-069>071-074>076-080>082-084>086-088>090-092>094-071700-
SOUTH-CENTRAL ILLINOIS

CITY           SKY/WX    TMP DP  RH WIND       PRES   REMARKS
CARBONDALE     CLOUDY    35  23  61 NE3       30.24S
CAIRO*         SUNNY     37  24  60 NE10      30.24R WCI  30
EFFINGHAM*     CLOUDY    33  25  70 SW5       30.24R WCI  29
MARION         PTSUNNY   36  23  60 CALM      30.25R
CENTRALIA*     CLOUDY    34  23  64 CALM      30.23R
SALEM*         PTSUNNY   35  18  50 CALM      30.23R
METROPOLIS*    MOSUNNY   39  23  54 NE6       30.24S WCI  34
$$

ILZ067-068-072-073-078-083-087-091-071700-
SOUTHEAST ILLINOIS

CITY           SKY/WX    TMP DP  RH WIND       PRES   REMARKS
LAWRENCEVILLE  CLOUDY    34  20  56 S5        30.23S WCI  30
FLORA*         PTSUNNY   37  23  57 W3        30.24R
FAIRFIELD*     CLOUDY    35  24  64 CALM      30.22F
HARRISBURG*    CLOUDY    36  24  61 E6        30.24S WCI  31
ROBINSON*      PTSUNNY   33  22  62 W6        30.23R WCI  28
CARMI*         PTSUNNY   37  22  56 NE6       30.23S WCI  32
$$

ABBREVIATIONS USED IN REMARKS
   TC - TEMPERATURE IN CELSIUS
  WCI - WIND CHILL INDEX
   HX - HEAT INDEX
  VSB - VISIBILITY
$$





USA.gov is the U.S. government's official web portal to all federal, state and local government web resources and services.